Regional Weather Roundup
Issued by NWS Grand Forks, ND

Home | Current Version | Previous Version | Graphics & Text | Print | Product List | Glossary On
Versions: 1 2 3 4 5 6 7 8 9 10 11 12 13 14 15 16 17 18 19 20 21 22 23 24 25 26 27 28 29 30 31 32 33 34 35 36 37 38 39 40 41 42 43 44 45 46 47 48 49 50
000
ASUS43 KFGF 102110
RWRFGF
PRAIRIE TO PINES  WEATHER ROUNDUP
NATIONAL WEATHER SERVICE EASTERN NORTH DAKOTA/GRAND FORKS ND
300 PM CST SAT DEC 10 2016

 **SATELLITE DATA USED TO AUGMENT SKY COVER AT AUTOMATED STATIONS**
 *****  WEATHER ACROSS EASTERN NORTH DAKOTA  *****

CITY           SKY/WX    TMP DP  RH WIND       PRES   REMARKS
GRAND FORKS    CLOUDY    -2  -9  72 SE5       30.36F WCI -12
GRAND FRKS AFB CLOUDY    -2  -9  71 E6        30.33F WCI -14
DEVILS LAKE    CLOUDY    -5  -9  83 SE8       30.23F WCI -20
FARGO          CLOUDY     2  -7  66 E7        30.32F HAZE    WCI -11
WAHPETON ARPT  CLOUDY     1  -6  71 E6        30.29F WCI -10
$$

 ***** WEATHER ACROSS CENTRAL AND WESTERN NORTH DAKOTA  *****

CITY           SKY/WX    TMP DP  RH WIND       PRES   REMARKS
BISMARCK       LGT SNOW  -4  -8  83 E9        30.13F FOG     WCI -20
MINOT          CLOUDY    -8 -13  78 E9        30.13F WCI -25
JAMESTOWN      CLOUDY    -2  -7  79 SE12      30.19F WCI -20
MINOT AFB      NOT AVBL
GARRISON         N/A     -5 -10  79 E12       30.09F WCI -23
WILLISTON      FLURRIES   2  -6  69 SE16      30.00F WCI -18
DICKINSON      CLOUDY    -1  -7  75 E18       29.88F WCI -22
HETTINGER      CLOUDY    -1  -6  79 SE15      29.90F WCI -21
$$

 *****  OTHER AIRPORT OBSERVATIONS IN OUR AREA  *****

CITY           SKY/WX    TMP DP  RH WIND       PRES   REMARKS
WALHALLA         N/A     -2  -2 100 SE7       30.34F WCI -16
GRAFTON AIRPOR FAIR      -4 -11  71 E3        30.39F
VALLEY CITY AR CLOUDY     0  -6  78 E10       30.24F WCI -17
CANDO          CLOUDY    -2  -6  84 S8        30.25F WCI -17
CAVALIER APRT    N/A     -2  -9  71 SE3       30.35F
GWINNER        CLOUDY     1  -4  78 E12       30.23F WCI -15
SHEYENNE NWR     N/A     -1 -10  65 E7        29.95  WCI -14
ROLLA          FAIR      -9 -13  84 S9        30.19F WCI -27
 ***** THE ABOVE OBSERVATIONS ARE NON NWS ARE NOT QUALITY
       CONTROLLED AND MAY MIS-REPORT RAIN FOR SNOW...
$$

  *****  WEATHER ACROSS NORTHERN MINNESOTA  *****

CITY           SKY/WX    TMP DP  RH WIND       PRES   REMARKS
FLAG ISLAND    CLEAR      1  -2  85 CALM      30.33S
WARROAD        CLEAR     -2  -6  84 CALM      30.34F
ROSEAU         CLEAR     -2  -8  78 SW3       30.35F
HALLOCK        CLOUDY    -4  -8  84 CALM      30.37F
THF RVR FALLS  CLOUDY    -2  -7  79 E5        30.34F WCI -12
BAUDETTE       PTCLDY     2  -5  72 CALM      30.32S
WASKISH        PTCLDY     3  -2  78 CALM      30.32S
CROOKSTON      CLOUDY    -2  -8  78 E3        30.37S
GREENBUSH NDAW   N/A     -6  -9  84 NE3         N/A
$$
  *****  WEATHER ACROSS CENTRAL AND WEST MINNESOTA  *****

CITY           SKY/WX    TMP DP  RH WIND       PRES   REMARKS
FOSSTON        CLOUDY    -4 -11  71 NE5       30.30F WCI -15
BEMIDJI        CLOUDY     0  -8  70 E6        30.29F WCI -12
PARK RAPIDS    PTSUNNY    2  -7  66 CALM      30.27F
ELBOW LAKE     MOCLDY     1  -4  80 SE7       30.28F WCI -12
WADENA         CLOUDY     1  -6  71 E3        30.28S
DETROIT LAKES  CLOUDY     1  -4  78 SE7       30.28F WCI -11
MOORHEAD       CLOUDY     0  -8  71 E6        30.32F WCI -12
FERGUS FALLS   CLOUDY     1  -6  71 E6        30.33F WCI -10
MORRIS MN      LGT SNOW   3   0  85 E7        30.26F WCI  -9
STAPLES        NOT AVBL
$$
  *****  WEATHER ELSEWHERE ACROSS MINNESOTA  *****

CITY           SKY/WX    TMP DP  RH WIND       PRES   REMARKS
DULUTH         PTCLDY     5  -5  63 W7        30.30S WCI  -7
INTRNTL FALLS  MOCLDY     3  -4  72 CALM      30.32S
ELY            CLEAR      3  -6  66 CALM      30.28F
CLOQUET        MOCLDY     7  -4  61 CALM      30.30F
WHEATON        LGT SNOW   5   0  78 E9        30.29F WCI  -9
BRAINERD       CLOUDY     7  -2  66 S7        30.30F WCI  -5
HIBBING        CLEAR      1  -8  66 SE3       30.30S
ALEXANDRIA     CLOUDY     3  -3  76 E7        30.26F WCI  -9
SAINT CLOUD    CLOUDY     9   1  70 SE5       30.31F WCI   1
MINNEAPOLIS    LGT SNOW  11   5  77 S5        30.35F VSB 1   WCI   3
$$

  *****  WEATHER ACROSS SOUTH DAKOTA  *****

CITY           SKY/WX    TMP DP  RH WIND       PRES   REMARKS
SIOUX FALLS    FLURRIES  15  12  88 E20G25    30.09F WCI  -2
BROOKINGS      LGT SNOW  10   6  84 E15       30.09F FOG     WCI  -7
WATERTOWN      LGT SNOW   4  -1  80 E9        30.11F WCI -10
HURON          CLOUDY    13   9  84 E12       30.07F WCI  -1
SISSETON         N/A      2  -3  80 E8        30.24F WCI -12
ABERDEEN       LGT SNOW   6  -2  69 E14       30.16F WCI -11
MITCHELL       CLOUDY    17  14  88 SE22      30.04F WCI   0
PIERRE         CLOUDY     7   2  80 E16       29.99F WCI -11
MOBRIDGE       LGT SNOW   3  -5  69 E14       30.02F WCI -15
RAPID CITY     CLOUDY     8   2  76 E6        29.80F WCI  -2
$$

  *****  SOME WEATHER IN NEARBY STATES *****

CITY           SKY/WX    TMP DP  RH WIND       PRES   REMARKS
GLASGOW MT     LGT SNOW   1  -4  79 E17G25    29.83F VSB 3/4 WCI -19
GREAT FALLS MT CLOUDY     9   3  77 CALM      29.69R
CHEYENNE WY    CLOUDY    47  26  44 W17       29.74S
SCOTTSBLUFF NE CLOUDY    28  19  69 E5        29.71F WCI  23
OMAHA NE       CLOUDY    30  15  53 SE14      30.13F WCI  19
DES MOINES IA  CLOUDY    26  20  77 SE10      30.26F WCI  16
DAVENPORT IA   LGT SNOW  22  19  89 SE8       30.37F VSB 3/4 WCI  12
CHICAGO IL     CLOUDY    23  13  65 SW7       30.41F WCI  15
EAU CLAIRE WI  CLOUDY    13   3  64 CALM      30.35S
LA CROSSE WI   LGT SNOW  16  10  77 SW6       30.39S WCI   7
$$

  *****  SOME NATIONAL WEATHER *****

CITY           SKY/WX    TMP DP  RH WIND       PRES   REMARKS
LA GUARDIA NY  MOCLDY    36  17  46 NW14      30.36R
RALEIGH NC     PTCLDY    43  10  26 VRB6      30.47R
ATLANTA GA     MOSUNNY   49  12  22 CALM      30.41S
NEW ORLEANS LA MOSUNNY   52  23  32 NE6       30.40F
OKLAHOMA CITY  PTSUNNY   46  26  45 S23G31    30.10F
ALBUQUERQUE NM CLOUDY    49  30  48 S6        30.11F
SALT LAKE CITY LGT RAIN  49  36  61 S18       29.85F
LOS ANGELES CA PTSUNNY   63  54  72 S3        30.13F HAZE
BOISE ID       FOG       34  34 100 NW6       29.87F VSB<1/4
SEATTLE WA     CLOUDY    43  36  76 S16G25    29.82F
$$

*** WEATHER ACROSS MANITOBA...SASKATCHEWAN AND ONTARIO ***
                ***ONTARIO***

CITY           SKY/WX    TMP DP  RH WIND       PRES   REMARKS
GERALDTON      FLURRIES   3  -4  72 VRB2      30.28R
THUNDER BAY    PTCLDY     9   0  66 W8        30.35S WCI  -4
SIOUX LOOKOUT  CRYSTALS   0  -8  71 N5        30.29F WCI -10
TORONTO        PTCLDY    27  12  54 W17G29    30.32R WCI  14
BIG TROUT LK   CLEAR     -6 -11  77 W7        30.30S WCI -20
PICKLE LAKE    FLURRIES  -6 -11  77 W6        30.28S WCI -18
DRYDEN         PTCLDY     0  -6  78 W6        30.28F WCI -12
KENORA         MOCLDY     0  -6  78 VRB5      30.29F WCI -10
$$
                *** MANITOBA***

CITY           SKY/WX    TMP DP  RH WIND       PRES   REMARKS
BRANDON        MOSUNNY   -9 -15  77 SW3       30.24F
DAUPHIN        CLEAR     -8 -17  65 SE5       30.27F WCI -19
ISLAND LAKE    FLURRIES  -2  -6  84 SW7       30.31F WCI -16
PILOT MOUND      N/A     -8 -13  77 S5          N/A  WCI -19
THE PAS        PTCLDY    -4 -13  65 SW3       30.25F
THOMPSON       NOT AVBL
WINNIPEG       CLEAR     -6 -15  65 S9        30.37F WCI -22
LYNN LAKE      CLOUDY    -9 -13  84 SW5       30.09S WCI -21
CHURCHILL      MOCLDY    -8 -13  77 W9        30.14F WCI -25
GILLAM         FLURRIES   1  -4  78 SW9       30.22F WCI -14
$$
                ***SASKATCHEWAN***

CITY           SKY/WX    TMP DP  RH WIND       PRES   REMARKS
ESTEVAN        LGT SNOW  -8 -13  77 E13G18    30.07F DRFTSNOWWCI -28
KINDERSLEY     PTSUNNY    1  -4  78 E14       29.91F WCI -17
LLOYDMINSTER   CRYSTALS  -6  -9  84 NE6       30.00S WCI -18
PRINCE ALBERT  PTCLDY    -4 -11  71 VRB2      30.15F
REGINA         MOSUNNY   -6 -11  77 SE15G21   30.06F WCI -27
YORKTON        CLEAR     -8 -13  77 SE7       30.16F WCI -22
N. BATTLEFORD  SUNNY     -2  -8  78 E8        30.06F WCI -17
LA RONGE       PTCLDY    -6 -15  65 SW5       30.16F WCI -17
SASKATOON      MOSUNNY    1  -6  71 SE10      30.08F WCI -14
SWIFT CURRENT  FLURRIES   3   0  85 SE17G24   29.82F WCI -17
$$
NOTE: THESE ARE AUTOMATED STATIONS WITH LIMITED QUALITY CONTROL
      "FAIR" INDICATES FEW OR NO CLOUDS BELOW 12,000 FEET WITH NO
      SIGNIFICANT WEATHER AND/OR OBSTRUCTIONS TO VISIBILITY.
      SKY/WX - SKY CONDITION AND SIGNIFICANT WEATHER.
      TMP - AIR TEMPERATURE.    DP   - DEWPOINT TEMPERATURE.
      RH  - RELATIVE HUMIDITY.  PRES - PRESSURE.
      HX  - HEAT INDEX.         WCI  - WIND CHILL INDEX.
$



USA.gov is the U.S. government's official web portal to all federal, state and local government web resources and services.